Location: Newark
(44.2003°N, 3.2583°E)
Time: 02:25:47
(UTC+00:00)

Courier 1B Rocket - All Passes

Search period start: 23 October 2019 00:00
Search period end: 02 November 2019 00:00
Orbit: 920 x 1202 km, 28.2° (Epoch: 21 October)

Date Brightness Start Highest point End Pass type
(mag) Time Alt. Az. Time Alt. Az. Time Alt. Az.
23 Oct - 02:03:29 10° SSW 02:06:39 14° SSE 02:09:47 10° SE visible
23 Oct - 03:54:52 10° SW 03:58:55 18° S 04:02:59 10° SE visible
23 Oct - 05:48:22 10° SW 05:51:11 13° SSW 05:54:02 10° SSE daylight
24 Oct - 01:03:52 10° S 01:06:00 12° SSE 01:08:08 10° SE night (unlit)
24 Oct - 02:54:15 10° SW 02:58:15 18° S 03:02:15 10° SE visible
24 Oct - 04:47:03 10° SW 04:50:32 15° S 04:54:04 10° SSE visible
25 Oct - 01:53:45 10° SSW 01:57:36 17° S 02:01:24 10° SE visible
25 Oct - 03:46:00 10° SW 03:49:54 17° S 03:53:46 10° SSE visible
26 Oct - 00:53:28 10° SSW 00:56:56 15° SSE 01:00:20 10° SE night (unlit)
26 Oct - 02:45:07 10° SW 02:49:14 18° S 02:53:18 10° SE visible
26 Oct - 04:38:51 10° SW 04:41:28 13° SSW 04:44:06 10° S visible
26 Oct - 23:53:33 10° S 23:56:16 13° SSE 23:58:55 10° SE night (unlit)
27 Oct - 01:44:20 10° SW 01:48:34 18° S 01:52:42 10° SE visible
27 Oct - 03:37:21 10° SW 03:40:51 15° SSW 03:44:19 10° SSE visible
27 Oct - 22:55:08 10° SSE 22:55:35 10° SSE 22:56:01 10° SSE night (unlit)
28 Oct - 00:43:42 10° SSW 00:47:53 18° S 00:51:56 10° SE night (unlit)
28 Oct - 02:36:11 10° SW 02:40:12 17° S 02:44:09 10° SSE visible
28 Oct - 23:43:15 10° SSW 23:47:10 16° SSE 23:50:58 10° SE night (unlit)
29 Oct - 01:35:09 10° SW 01:39:32 19° S 01:43:46 10° SE night (unlit)
29 Oct - 03:29:07 10° SW 03:31:46 13° SSW 03:34:25 10° S visible
29 Oct - 22:43:07 10° SSW 22:46:27 14° SSE 22:49:42 10° SE night (unlit)
30 Oct - 00:34:16 10° SW 00:38:49 19° S 00:43:14 10° SE night (unlit)
30 Oct - 02:27:28 10° SW 02:31:08 16° SSW 02:34:44 10° SSE visible
30 Oct - 21:43:40 10° S 21:45:43 11° SSE 21:47:45 10° SE night (unlit)
30 Oct - 23:33:30 10° SW 23:38:06 19° S 23:42:30 10° SE night (unlit)
31 Oct - 01:26:09 10° SW 01:30:28 18° S 01:34:39 10° SSE night (unlit)
31 Oct - 22:32:56 10° SSW 22:37:20 17° S 22:41:35 10° SE night (unlit)
01 Nov - 00:25:01 10° SW 00:29:46 20° S 00:34:18 10° SE night (unlit)
01 Nov - 02:19:06 10° SW 02:22:02 13° SSW 02:24:55 10° S night (unlit)
01 Nov - 21:32:38 10° SSW 21:36:34 15° SSE 21:40:21 10° SE night (unlit)
01 Nov - 23:24:02 10° SW 23:29:01 20° S 23:33:45 10° SE night (unlit)
